Location: Unspecified
(50.7693°N, 0.0000°E)
Time: 07:29:52
(UTC+00:00)

Transit 2A Rocket - Pass Details

Date: 23 October 2019
Orbit: 594 x 909 km, 66.7° (Epoch: 18 November)

Event Time Altitude Azimuth Distance (km) Brightness Sun altitude
Exits shadow 03:08:10 14° 131° (SE) 1,900 7.2 -32.8°
Maximum altitude 03:09:40 16° 109° (ESE) 1,768 7.3 -32.6°
Drops below altitude 10° 03:12:32 10° 72° (ENE) 2,094 8.1 -32.2°
Sets 03:15:32 0° 51° (NE) 2,958 9.1 -31.8°
